Year,Month,Day,Hour,Minute,Value (Times are PST for temperature in C)
2009,04,21,08,20,10.40
2009,04,21,08,21,10.50
2009,04,21,08,22,10.60
2009,04,21,08,23,10.70
2009,04,21,08,24,10.70
2009,04,21,08,25,10.70
2009,04,21,08,26,10.80
2009,04,21,08,27,10.80
2009,04,21,08,28,10.80
2009,04,21,08,29,10.80
2009,04,21,08,30,10.80
2009,04,21,08,31,10.90
2009,04,21,08,32,11.00
2009,04,21,08,33,11.10
2009,04,21,08,34,11.20
2009,04,21,08,35,11.20
2009,04,21,08,36,11.30
2009,04,21,08,37,11.40
2009,04,21,08,38,11.50
2009,04,21,08,39,11.60
2009,04,21,08,40,11.60
2009,04,21,08,41,11.70
2009,04,21,08,42,11.80
2009,04,21,08,43,11.80
2009,04,21,08,44,11.90
2009,04,21,08,45,11.90
2009,04,21,08,46,12.00
2009,04,21,08,47,12.10
2009,04,21,08,48,12.10
2009,04,21,08,49,12.10
2009,04,21,08,50,12.10
2009,04,21,08,51,12.10
2009,04,21,08,52,12.20
2009,04,21,08,53,12.30
2009,04,21,08,54,12.30
2009,04,21,08,55,12.40
2009,04,21,08,56,12.40
2009,04,21,08,57,12.40
2009,04,21,08,58,12.40
2009,04,21,08,59,12.40
2009,04,21,09,00,12.50
2009,04,21,09,01,12.50
2009,04,21,09,02,12.60
2009,04,21,09,03,12.60
2009,04,21,09,04,12.70
2009,04,21,09,05,12.60
2009,04,21,09,06,12.60
2009,04,21,09,07,12.70
2009,04,21,09,08,12.80
2009,04,21,09,09,12.80
2009,04,21,09,10,12.80
2009,04,21,09,11,12.80
2009,04,21,09,12,12.90
2009,04,21,09,13,12.90
2009,04,21,09,14,13.00
2009,04,21,09,15,13.00
2009,04,21,09,16,13.00
2009,04,21,09,17,13.10
2009,04,21,09,18,13.10
2009,04,21,09,19,13.10
2009,04,21,09,20,13.10
2009,04,21,09,21,13.10
2009,04,21,09,22,13.10
2009,04,21,09,23,13.00
2009,04,21,09,24,12.90
2009,04,21,09,25,12.70
2009,04,21,09,26,12.50
2009,04,21,09,27,12.40
2009,04,21,09,28,12.20
2009,04,21,09,29,12.10
2009,04,21,09,30,12.10
2009,04,21,09,31,12.10
2009,04,21,09,32,12.10
2009,04,21,09,33,12.10
2009,04,21,09,34,12.10
2009,04,21,09,35,12.10
2009,04,21,09,36,12.10
2009,04,21,09,37,12.20
2009,04,21,09,38,12.30
2009,04,21,09,39,12.30
2009,04,21,09,40,12.30
2009,04,21,09,41,12.40
2009,04,21,09,42,12.40
2009,04,21,09,43,12.40
2009,04,21,09,44,12.50
2009,04,21,09,45,12.50
2009,04,21,09,46,12.60
2009,04,21,09,47,12.60
2009,04,21,09,48,12.60
2009,04,21,09,49,12.60
2009,04,21,09,50,12.70
2009,04,21,09,51,12.70
2009,04,21,09,52,12.70
2009,04,21,09,53,12.70
2009,04,21,09,54,12.80
2009,04,21,09,55,12.80
2009,04,21,09,56,12.80
2009,04,21,09,57,12.90
2009,04,21,09,58,12.90
2009,04,21,09,59,13.00
2009,04,21,10,00,13.00
2009,04,21,10,01,13.00
2009,04,21,10,02,13.10
2009,04,21,10,03,13.10
2009,04,21,10,04,13.10
2009,04,21,10,05,13.10
2009,04,21,10,06,13.10
2009,04,21,10,07,13.10
2009,04,21,10,08,13.00
2009,04,21,10,09,13.00
2009,04,21,10,10,12.90
2009,04,21,10,11,12.90
2009,04,21,10,12,12.80
2009,04,21,10,13,12.80
2009,04,21,10,14,12.80
2009,04,21,10,15,12.80
2009,04,21,10,16,12.80
2009,04,21,10,17,12.90
2009,04,21,10,18,12.90
2009,04,21,10,19,13.00
2009,04,21,10,20,13.10
2009,04,21,10,21,13.10
2009,04,21,10,22,13.20
2009,04,21,10,23,13.30
2009,04,21,10,24,13.30
2009,04,21,10,25,13.40
2009,04,21,10,26,13.50
2009,04,21,10,27,13.60
2009,04,21,10,28,13.70
2009,04,21,10,29,13.80
2009,04,21,10,30,13.80
2009,04,21,10,31,13.90
2009,04,21,10,32,14.00
2009,04,21,10,33,14.00
2009,04,21,10,34,14.10
2009,04,21,10,35,14.10
2009,04,21,10,36,14.10
2009,04,21,10,37,14.00
2009,04,21,10,38,14.00
2009,04,21,10,39,14.00
2009,04,21,10,40,14.00
2009,04,21,10,41,14.10
2009,04,21,10,42,14.10
2009,04,21,10,43,14.20
2009,04,21,10,44,14.20
2009,04,21,10,45,14.20
2009,04,21,10,46,14.20
2009,04,21,10,47,14.20
2009,04,21,10,48,14.10
2009,04,21,10,49,14.10
2009,04,21,10,50,14.10
2009,04,21,10,51,14.20
2009,04,21,10,52,14.20
2009,04,21,10,53,14.20
2009,04,21,10,54,14.30
2009,04,21,10,55,14.30
2009,04,21,10,56,14.50
2009,04,21,10,57,14.70
2009,04,21,10,58,14.90
2009,04,21,10,59,15.00
2009,04,21,11,00,15.00
2009,04,21,11,01,14.90
2009,04,21,11,02,14.80
2009,04,21,11,03,14.80
2009,04,21,11,04,14.80
2009,04,21,11,05,14.90
2009,04,21,11,06,14.90
2009,04,21,11,07,15.00
2009,04,21,11,08,15.00
2009,04,21,11,09,15.00
2009,04,21,11,10,15.00
2009,04,21,11,11,15.00
2009,04,21,11,12,15.00
2009,04,21,11,13,15.00
2009,04,21,11,14,15.00
2009,04,21,11,15,15.00
2009,04,21,11,16,15.00
2009,04,21,11,17,15.00
2009,04,21,11,18,15.00
2009,04,21,11,19,15.00
2009,04,21,11,20,15.10
2009,04,21,11,21,15.10
2009,04,21,11,22,15.00
2009,04,21,11,23,15.00
2009,04,21,11,24,14.90
2009,04,21,11,25,15.00
2009,04,21,11,26,15.00
2009,04,21,11,27,15.00
2009,04,21,11,28,15.00
2009,04,21,11,29,15.10
2009,04,21,11,30,15.00
2009,04,21,11,31,15.00
2009,04,21,11,32,15.00
2009,04,21,11,33,15.00
2009,04,21,11,34,15.00
2009,04,21,11,35,15.00
2009,04,21,11,36,15.00
2009,04,21,11,37,15.00
2009,04,21,11,38,15.00
2009,04,21,11,39,15.00
2009,04,21,11,40,15.20
2009,04,21,11,41,15.20
2009,04,21,11,42,15.20
2009,04,21,11,43,15.30
2009,04,21,11,44,15.40
2009,04,21,11,45,15.40
2009,04,21,11,46,15.40
2009,04,21,11,47,15.40
2009,04,21,11,48,15.40
2009,04,21,11,49,15.30
2009,04,21,11,50,15.20
2009,04,21,11,51,15.30
2009,04,21,11,52,15.40
2009,04,21,11,53,15.40
2009,04,21,11,54,15.50
2009,04,21,11,55,15.70
2009,04,21,11,56,15.80
2009,04,21,11,57,15.90
2009,04,21,11,58,16.00
2009,04,21,11,59,16.00
2009,04,21,12,00,16.10
2009,04,21,12,01,16.10
2009,04,21,12,02,16.10
2009,04,21,12,03,15.90
2009,04,21,12,04,15.80
2009,04,21,12,05,15.70
2009,04,21,12,06,15.70
2009,04,21,12,07,15.60
2009,04,21,12,08,15.60
2009,04,21,12,09,15.50
2009,04,21,12,10,15.40
2009,04,21,12,11,15.40
2009,04,21,12,12,15.50
2009,04,21,12,13,15.60
2009,04,21,12,14,15.60
2009,04,21,12,15,15.60
2009,04,21,12,16,15.50
2009,04,21,12,17,15.30
2009,04,21,12,18,15.30
2009,04,21,12,19,15.30
2009,04,21,12,20,15.30
2009,04,21,12,21,15.30
2009,04,21,12,22,15.20
2009,04,21,12,23,15.00
2009,04,21,12,24,15.00
2009,04,21,12,25,15.00
2009,04,21,12,26,15.00
2009,04,21,12,27,14.90
2009,04,21,12,28,14.90
2009,04,21,12,29,14.90
2009,04,21,12,30,14.90
2009,04,21,12,31,14.90
2009,04,21,12,32,14.80
2009,04,21,12,33,14.80
2009,04,21,12,34,14.80
2009,04,21,12,35,14.80
2009,04,21,12,36,14.80
2009,04,21,12,37,14.70
2009,04,21,12,38,14.70
2009,04,21,12,39,14.80
2009,04,21,12,40,14.80
2009,04,21,12,41,14.90
2009,04,21,12,42,15.00
2009,04,21,12,43,15.00
2009,04,21,12,44,15.00
2009,04,21,12,45,15.00
2009,04,21,12,46,15.00
2009,04,21,12,47,15.00
2009,04,21,12,48,15.00
2009,04,21,12,49,15.00
2009,04,21,12,50,15.00
2009,04,21,12,51,15.20
2009,04,21,12,52,15.30
2009,04,21,12,53,15.30
2009,04,21,12,54,15.40
2009,04,21,12,55,15.40
2009,04,21,12,56,15.50
2009,04,21,12,57,15.60
2009,04,21,12,58,15.70
2009,04,21,12,59,15.80
2009,04,21,13,00,15.70
2009,04,21,13,01,15.70
2009,04,21,13,02,15.70
2009,04,21,13,03,15.70
2009,04,21,13,04,15.80
2009,04,21,13,05,15.80
2009,04,21,13,06,15.80
2009,04,21,13,07,15.70
2009,04,21,13,08,15.60
2009,04,21,13,09,15.60
2009,04,21,13,10,15.60
2009,04,21,13,11,15.50
2009,04,21,13,12,15.50
2009,04,21,13,13,15.60
2009,04,21,13,14,15.60
2009,04,21,13,15,15.60
2009,04,21,13,16,15.60
2009,04,21,13,17,15.60
2009,04,21,13,18,15.50
2009,04,21,13,19,15.50
2009,04,21,13,20,15.50
2009,04,21,13,21,15.50
2009,04,21,13,22,15.50
2009,04,21,13,23,15.60
2009,04,21,13,24,15.50
2009,04,21,13,25,15.40
2009,04,21,13,26,15.30
2009,04,21,13,27,15.30
2009,04,21,13,28,15.30
2009,04,21,13,29,15.30
2009,04,21,13,30,15.40
2009,04,21,13,31,15.50
2009,04,21,13,32,15.60
2009,04,21,13,33,15.50
2009,04,21,13,34,15.50
2009,04,21,13,35,15.50
2009,04,21,13,36,15.40
2009,04,21,13,37,15.40
2009,04,21,13,38,15.40
2009,04,21,13,39,15.40
2009,04,21,13,40,15.50
2009,04,21,13,41,15.60
2009,04,21,13,42,15.80
2009,04,21,13,43,16.00
2009,04,21,13,44,16.10
2009,04,21,13,45,16.20
2009,04,21,13,46,16.10
2009,04,21,13,47,16.10
2009,04,21,13,48,16.10
2009,04,21,13,49,16.10
2009,04,21,13,50,16.30
2009,04,21,13,51,16.40
2009,04,21,13,52,16.40
2009,04,21,13,53,16.40
2009,04,21,13,54,16.40
2009,04,21,13,55,16.50
2009,04,21,13,56,16.40
2009,04,21,13,57,16.40
2009,04,21,13,58,16.40
2009,04,21,13,59,16.50
2009,04,21,14,00,16.50
2009,04,21,14,01,16.60
2009,04,21,14,02,16.70
2009,04,21,14,03,16.80
2009,04,21,14,04,16.80
2009,04,21,14,05,16.80
2009,04,21,14,06,16.90
2009,04,21,14,07,16.80
2009,04,21,14,08,16.90
2009,04,21,14,09,16.90
2009,04,21,14,10,17.00
2009,04,21,14,11,17.10
2009,04,21,14,12,17.20
2009,04,21,14,13,17.30
2009,04,21,14,14,17.40
2009,04,21,14,15,17.50
2009,04,21,14,16,17.50
2009,04,21,14,17,17.60
2009,04,21,14,18,17.60
2009,04,21,14,19,17.70
2009,04,21,14,20,17.80
2009,04,21,14,21,17.80
2009,04,21,14,22,17.80
2009,04,21,14,23,17.80
2009,04,21,14,24,17.90
2009,04,21,14,25,17.90
2009,04,21,14,26,18.00
2009,04,21,14,27,18.10
2009,04,21,14,28,18.00
2009,04,21,14,29,17.90
2009,04,21,14,30,17.80
2009,04,21,14,31,17.80
2009,04,21,14,32,17.90
2009,04,21,14,33,18.00
2009,04,21,14,34,18.10
2009,04,21,14,35,18.00
2009,04,21,14,36,18.00
2009,04,21,14,37,17.80
2009,04,21,14,38,17.60
2009,04,21,14,39,17.50
2009,04,21,14,40,17.30
2009,04,21,14,41,17.40
2009,04,21,14,42,17.40
2009,04,21,14,43,17.50
2009,04,21,14,44,17.50
2009,04,21,14,45,17.40
2009,04,21,14,46,17.40
2009,04,21,14,47,17.40
2009,04,21,14,48,17.40
2009,04,21,14,49,17.40
2009,04,21,14,50,17.30
2009,04,21,14,51,17.30
2009,04,21,14,52,17.20
2009,04,21,14,53,17.10
2009,04,21,14,54,17.10
2009,04,21,14,55,17.10
2009,04,21,14,56,17.10
2009,04,21,14,57,17.10
2009,04,21,14,58,17.10
2009,04,21,14,59,17.10
2009,04,21,15,00,17.10
2009,04,21,15,01,17.10
2009,04,21,15,02,17.00
2009,04,21,15,03,17.00
2009,04,21,15,04,17.00
2009,04,21,15,05,16.90
2009,04,21,15,06,16.90
2009,04,21,15,07,16.90
2009,04,21,15,08,17.00
2009,04,21,15,09,17.00
2009,04,21,15,10,17.00
2009,04,21,15,11,17.00
2009,04,21,15,12,17.00
2009,04,21,15,13,17.00
2009,04,21,15,14,16.90
2009,04,21,15,15,16.90
2009,04,21,15,16,16.90
2009,04,21,15,17,16.90
2009,04,21,15,18,16.90
2009,04,21,15,19,16.90
2009,04,21,15,20,17.00
2009,04,21,15,21,17.00
2009,04,21,15,22,17.10
2009,04,21,15,23,17.10
2009,04,21,15,24,17.10
2009,04,21,15,25,17.10
2009,04,21,15,26,17.10
2009,04,21,15,27,17.20
2009,04,21,15,28,17.20
2009,04,21,15,29,17.20
2009,04,21,15,30,17.20
2009,04,21,15,31,17.20
2009,04,21,15,32,17.10
2009,04,21,15,33,17.10
2009,04,21,15,34,17.10
2009,04,21,15,35,17.10
2009,04,21,15,36,17.10
2009,04,21,15,37,17.10
2009,04,21,15,38,17.10
2009,04,21,15,39,17.10
2009,04,21,15,40,17.10
2009,04,21,15,41,17.10
2009,04,21,15,42,17.00
2009,04,21,15,43,17.00
2009,04,21,15,44,16.90
2009,04,21,15,45,16.80
2009,04,21,15,46,16.80
2009,04,21,15,47,16.90
2009,04,21,15,48,16.90
2009,04,21,15,49,16.90
2009,04,21,15,50,16.90
2009,04,21,15,51,16.90
2009,04,21,15,52,16.80
2009,04,21,15,53,16.70
2009,04,21,15,54,16.70
2009,04,21,15,55,16.70
2009,04,21,15,56,16.70
2009,04,21,15,57,16.70
2009,04,21,15,58,16.70
2009,04,21,15,59,16.80
2009,04,21,16,00,16.80
2009,04,21,16,01,16.70
2009,04,21,16,02,16.70
2009,04,21,16,03,16.70
2009,04,21,16,04,16.70
2009,04,21,16,05,16.80
2009,04,21,16,06,16.80
2009,04,21,16,07,16.80
2009,04,21,16,08,16.80
2009,04,21,16,09,16.80
2009,04,21,16,10,16.90
2009,04,21,16,11,16.90
2009,04,21,16,12,16.90
2009,04,21,16,13,16.80
2009,04,21,16,14,16.70
2009,04,21,16,15,16.60
2009,04,21,16,16,16.50
2009,04,21,16,17,16.50
2009,04,21,16,18,16.40
2009,04,21,16,19,16.30
2009,04,21,16,20,16.30
2009,04,21,16,21,16.20
2009,04,21,16,22,16.10
2009,04,21,16,23,16.10
2009,04,21,16,24,16.00
2009,04,21,16,25,15.90
2009,04,21,16,26,15.90
2009,04,21,16,27,15.80
2009,04,21,16,28,15.70
2009,04,21,16,29,15.50
2009,04,21,16,30,15.30
2009,04,21,16,31,15.20
2009,04,21,16,32,15.10
2009,04,21,16,33,15.10
2009,04,21,16,34,15.10
2009,04,21,16,35,15.20
2009,04,21,16,36,15.30
2009,04,21,16,37,15.40
2009,04,21,16,38,15.50
2009,04,21,16,39,15.60
2009,04,21,16,40,15.60
2009,04,21,16,41,15.70
2009,04,21,16,42,15.80
2009,04,21,16,43,15.80
2009,04,21,16,44,15.90
2009,04,21,16,45,15.90
2009,04,21,16,46,15.90
2009,04,21,16,47,16.00
2009,04,21,16,48,16.00
2009,04,21,16,49,16.00
2009,04,21,16,50,16.00
2009,04,21,16,51,16.00
2009,04,21,16,52,16.00
2009,04,21,16,53,16.00
2009,04,21,16,54,16.00
2009,04,21,16,55,15.90
2009,04,21,16,56,15.90
2009,04,21,16,57,15.80
2009,04,21,16,58,15.80
2009,04,21,16,59,15.90
2009,04,21,17,00,15.90
2009,04,21,17,01,15.90
2009,04,21,17,02,15.90
2009,04,21,17,03,15.80
2009,04,21,17,04,15.70
2009,04,21,17,05,15.60
2009,04,21,17,06,15.50
2009,04,21,17,07,15.40
2009,04,21,17,08,15.30
2009,04,21,17,09,15.30
2009,04,21,17,10,15.30
2009,04,21,17,11,15.40
2009,04,21,17,12,15.40
2009,04,21,17,13,15.50
2009,04,21,17,14,15.60
2009,04,21,17,15,15.70
2009,04,21,17,16,15.80
2009,04,21,17,17,15.80
2009,04,21,17,18,15.80
2009,04,21,17,19,15.70
2009,04,21,17,20,15.80
2009,04,21,17,21,15.80
2009,04,21,17,22,15.80
2009,04,21,17,23,15.80
2009,04,21,17,24,15.80
2009,04,21,17,25,15.80
2009,04,21,17,26,15.80
2009,04,21,17,27,15.60
2009,04,21,17,28,15.40
2009,04,21,17,29,15.20
2009,04,21,17,30,15.00
2009,04,21,17,31,14.90
2009,04,21,17,32,14.60
2009,04,21,17,33,14.40
2009,04,21,17,34,14.20
2009,04,21,17,35,14.10
2009,04,21,17,36,14.00
2009,04,21,17,37,14.00
2009,04,21,17,38,14.00
2009,04,21,17,39,14.00
2009,04,21,17,40,14.10
2009,04,21,17,41,14.20
2009,04,21,17,42,14.30
2009,04,21,17,43,14.30
2009,04,21,17,44,14.40
2009,04,21,17,45,14.50
2009,04,21,17,46,14.50
2009,04,21,17,47,14.60
2009,04,21,17,48,14.70
2009,04,21,17,49,14.70
2009,04,21,17,50,14.80
2009,04,21,17,51,14.90
2009,04,21,17,52,14.90
2009,04,21,17,53,14.90
2009,04,21,17,54,14.90
2009,04,21,17,55,14.90
2009,04,21,17,56,14.90
2009,04,21,17,57,15.00
2009,04,21,17,58,15.00
2009,04,21,17,59,15.00
2009,04,21,18,00,15.00
2009,04,21,18,01,15.20
2009,04,21,18,02,15.30
2009,04,21,18,03,15.40
2009,04,21,18,04,15.60
2009,04,21,18,05,15.80
2009,04,21,18,06,16.00
2009,04,21,18,07,16.10
2009,04,21,18,08,16.30
2009,04,21,18,09,16.40
2009,04,21,18,10,16.60
2009,04,21,18,11,16.70
2009,04,21,18,12,16.80
2009,04,21,18,13,16.80
2009,04,21,18,14,16.90
2009,04,21,18,15,16.90
2009,04,21,18,16,17.00
2009,04,21,18,17,17.00
2009,04,21,18,18,17.00
2009,04,21,18,19,17.10
2009,04,21,18,20,17.10
2009,04,21,18,21,17.10
2009,04,21,18,22,17.10
2009,04,21,18,23,17.10
2009,04,21,18,24,17.10
2009,04,21,18,25,17.10
2009,04,21,18,26,17.10
2009,04,21,18,27,17.10
2009,04,21,18,28,17.10
2009,04,21,18,29,17.10
2009,04,21,18,30,17.10
2009,04,21,18,31,17.00
2009,04,21,18,32,17.00
2009,04,21,18,33,16.90
2009,04,21,18,34,16.90
2009,04,21,18,35,16.90
2009,04,21,18,36,16.90
2009,04,21,18,37,16.80
2009,04,21,18,38,16.80
2009,04,21,18,39,16.80
2009,04,21,18,40,16.70
2009,04,21,18,41,16.70
2009,04,21,18,42,16.70
2009,04,21,18,43,16.70
2009,04,21,18,44,16.70
2009,04,21,18,45,16.70
2009,04,21,18,46,16.60
2009,04,21,18,47,16.60
2009,04,21,18,48,16.60
2009,04,21,18,49,16.60
2009,04,21,18,50,16.60
2009,04,21,18,51,16.50
2009,04,21,18,52,16.50
2009,04,21,18,53,16.40
2009,04,21,18,54,16.40
2009,04,21,18,55,16.30
2009,04,21,18,56,16.30
2009,04,21,18,57,16.30
2009,04,21,18,58,16.30
2009,04,21,18,59,16.30
2009,04,21,19,00,16.30
2009,04,21,19,01,16.30
2009,04,21,19,02,16.30
2009,04,21,19,03,16.30
2009,04,21,19,04,16.30
2009,04,21,19,05,16.30
2009,04,21,19,06,16.30
2009,04,21,19,07,16.30
2009,04,21,19,08,16.30
2009,04,21,19,09,16.20
2009,04,21,19,10,16.20
2009,04,21,19,11,16.20
2009,04,21,19,12,16.20
2009,04,21,19,13,16.20
2009,04,21,19,14,16.20
2009,04,21,19,15,16.20
2009,04,21,19,16,16.20
2009,04,21,19,17,16.20
2009,04,21,19,18,16.20
2009,04,21,19,19,16.20
2009,04,21,19,20,16.20
2009,04,21,19,21,16.20
2009,04,21,19,22,16.20
2009,04,21,19,23,16.20
2009,04,21,19,24,16.20
2009,04,21,19,25,16.20
2009,04,21,19,26,16.20
2009,04,21,19,27,16.10
2009,04,21,19,28,16.10
2009,04,21,19,29,16.10
2009,04,21,19,30,16.10
2009,04,21,19,31,16.10
2009,04,21,19,32,16.10
2009,04,21,19,33,16.10
2009,04,21,19,34,16.00
2009,04,21,19,35,16.00
2009,04,21,19,36,16.00
2009,04,21,19,37,16.00
2009,04,21,19,38,16.00
2009,04,21,19,39,16.00
2009,04,21,19,40,15.90
2009,04,21,19,41,15.90
2009,04,21,19,42,15.90
2009,04,21,19,43,15.90
2009,04,21,19,44,15.90
2009,04,21,19,45,15.90
2009,04,21,19,46,15.90
2009,04,21,19,47,15.90
2009,04,21,19,48,15.90
2009,04,21,19,49,15.90
2009,04,21,19,50,15.90
2009,04,21,19,51,15.90
2009,04,21,19,52,15.90
2009,04,21,19,53,15.90
2009,04,21,19,54,15.90
2009,04,21,19,55,15.90
2009,04,21,19,56,15.90
2009,04,21,19,57,15.90
2009,04,21,19,58,15.90
2009,04,21,19,59,15.90
2009,04,21,20,00,15.90
2009,04,21,20,01,15.90
